Essaim E12

operational
NORAD ID: 28497 Int'l Des: 2004-049 Owner: CNES/DGA Country: F
LEOCIRCULARRETROGRADE

关于 Essaim E12

正在加载描述...

实时位置

正在加载3D地球...

即将过境

高度历史

Altitude vs Time

uPlot chart will show altitude changes over time

两行轨道根数

1 28497U 04049F 26063.11048769 .00002093 00000-0 23552-3 0 9994
2 28497 98.2683 306.0679 0000577 49.1778 310.9487 14.87841191143839
Epoch: Mar 4, 2026 • Age: 23 hours

当前状态

高度 607.2 km
速度 7.56 km/s
星下点 8.16°N, 16.42°W
发射日期 Dec 18, 2004
运行时间 21.2 years
类型 other

技术详情

分类 Payload
质量 119.00 kg
干质量 114.00 kg
总质量 119.00 kg
长度 0.60 m
直径 0.60 m
跨度 1.00 m
形状 Box + Pan
制造商 EADSB
平台类型 Myriade
阶段状态 In Orbit
所有者/国家 CNES/DGA/F

大型星座

Loading constellations...